TimeEET,TemperatureF,Dew PointF,Humidity,Sea Level PressureIn,VisibilityMPH,Wind Direction,Wind SpeedMPH,Gust SpeedMPH,PrecipitationIn,Events,Conditions,WindDirDegrees,DateUTC
12:50 AM,59.0,57.2,94,29.98,6.2,ENE,6.9,-,N/A,,Mostly Cloudy,70,2012-11-20 22:50:00
1:50 AM,57.2,55.4,94,29.95,6.2,East,5.8,-,N/A,,Mostly Cloudy,100,2012-11-20 23:50:00
2:00 AM,58,55,86,29.97,6,East,5.8,,,,Partly Cloudy,100,2012-11-21 00:00:00
2:50 AM,59.0,55.4,88,29.98,6.2,East,5.8,-,N/A,,Mostly Cloudy,80,2012-11-21 00:50:00
4:50 AM,59.0,53.6,82,29.98,6.2,East,8.1,-,N/A,,Scattered Clouds,80,2012-11-21 02:50:00
5:20 AM,59.0,53.6,82,29.98,6.2,East,8.1,-,N/A,,Scattered Clouds,80,2012-11-21 03:20:00
5:50 AM,59.0,55.4,88,29.98,6.2,East,5.8,-,N/A,,Mostly Cloudy,80,2012-11-21 03:50:00
6:20 AM,59.0,53.6,82,29.98,6.2,East,5.8,-,N/A,,Mostly Cloudy,80,2012-11-21 04:20:00
6:50 AM,57.2,53.6,88,29.98,6.2,ENE,5.8,-,N/A,,Mostly Cloudy,60,2012-11-21 04:50:00
7:20 AM,57.2,53.6,88,29.98,6.2,ENE,4.6,-,N/A,,Mostly Cloudy,60,2012-11-21 05:20:00
7:50 AM,57.2,53.6,88,29.98,6.2,ENE,6.9,-,N/A,,Mostly Cloudy,60,2012-11-21 05:50:00
8:00 AM,58,53,80,29.99,6,ENE,6.9,,,,Scattered Clouds,60,2012-11-21 06:00:00
8:20 AM,59.0,53.6,82,29.98,6.2,ENE,8.1,-,N/A,,Mostly Cloudy,70,2012-11-21 06:20:00
8:50 AM,59.0,53.6,82,30.01,6.2,East,5.8,-,N/A,,Mostly Cloudy,80,2012-11-21 06:50:00
9:20 AM,60.8,53.6,77,30.01,6.2,East,5.8,-,N/A,,Mostly Cloudy,80,2012-11-21 07:20:00
9:50 AM,62.6,55.4,77,30.01,6.2,East,5.8,-,N/A,,Mostly Cloudy,80,2012-11-21 07:50:00
10:20 AM,62.6,53.6,72,30.01,6.2,ENE,5.8,-,N/A,,Mostly Cloudy,70,2012-11-21 08:20:00
10:50 AM,64.4,53.6,68,30.01,6.2,East,5.8,-,N/A,,Scattered Clouds,90,2012-11-21 08:50:00
11:20 AM,64.4,55.4,73,30.01,6.2,East,3.5,-,N/A,,Scattered Clouds,90,2012-11-21 09:20:00
11:50 AM,66.2,53.6,64,30.01,6.2,ENE,3.5,-,N/A,,Scattered Clouds,60,2012-11-21 09:50:00
12:20 PM,68.0,55.4,64,29.98,6.2,NE,3.5,-,N/A,,Scattered Clouds,40,2012-11-21 10:20:00
12:50 PM,68.0,55.4,64,29.98,6.2,NE,4.6,-,N/A,,Scattered Clouds,50,2012-11-21 10:50:00
1:20 PM,69.8,53.6,56,29.98,6.2,ENE,4.6,-,N/A,,Scattered Clouds,60,2012-11-21 11:20:00
1:50 PM,69.8,51.8,53,29.98,6.2,East,3.5,-,N/A,,Mostly Cloudy,80,2012-11-21 11:50:00
2:00 PM,70,52,43,29.98,6,East,3.5,,,,Scattered Clouds,80,2012-11-21 12:00:00
2:20 PM,69.8,51.8,53,29.98,6.2,Calm,Calm,-,N/A,,Mostly Cloudy,0,2012-11-21 12:20:00
2:50 PM,69.8,50.0,49,29.98,6.2,Calm,Calm,-,N/A,,Mostly Cloudy,0,2012-11-21 12:50:00
3:20 PM,69.8,50.0,49,29.98,6.2,Calm,Calm,-,N/A,,Scattered Clouds,0,2012-11-21 13:20:00
3:50 PM,68.0,51.8,56,29.98,6.2,NE,3.5,-,N/A,,Scattered Clouds,40,2012-11-21 13:50:00
4:20 PM,66.2,51.8,60,29.98,6.2,NE,4.6,-,N/A,,Scattered Clouds,50,2012-11-21 14:20:00
5:20 PM,64.4,53.6,68,29.98,6.2,Calm,Calm,-,N/A,,Scattered Clouds,0,2012-11-21 15:20:00
5:50 PM,62.6,53.6,72,30.01,6.2,East,3.5,-,N/A,,Scattered Clouds,90,2012-11-21 15:50:00
6:50 PM,64.4,50.0,59,30.01,6.2,East,4.6,-,N/A,,Mostly Cloudy,90,2012-11-21 16:50:00
7:20 PM,64.4,50.0,59,30.01,6.2,ESE,4.6,-,N/A,,Mostly Cloudy,110,2012-11-21 17:20:00
7:50 PM,62.6,50.0,63,30.01,6.2,ESE,5.8,-,N/A,,Mostly Cloudy,110,2012-11-21 17:50:00
8:00 PM,63,49,51,30.03,6,ESE,5.8,,,,Scattered Clouds,110,2012-11-21 18:00:00
8:50 PM,64.4,51.8,64,30.01,6.2,East,8.1,-,N/A,,Mostly Cloudy,80,2012-11-21 18:50:00
9:50 PM,62.6,51.8,68,30.04,6.2,East,8.1,-,N/A,,Scattered Clouds,80,2012-11-21 19:50:00
10:50 PM,62.6,50.0,63,30.04,6.2,East,6.9,-,N/A,,Scattered Clouds,90,2012-11-21 20:50:00
11:50 PM,62.6,48.2,59,30.04,6.2,East,5.8,-,N/A,,Scattered Clouds,80,2012-11-21 21:50:00